When you browse on this site, cookies collect data to enhance your experience and personalize the content and advertising you see.
Visit our Privacy Policy to learn more. By continuing to use the site, you agree to this use of cookies and data.
  • In Sweden
  • List of Countries
  • For 7 days
  • Water Temperature
  • Weather Map
  • Weather Widgets
  • user-avatar
    Login

    Hourly Weather Campeche

    Today, 22 February, Saturday

    Time Temperature Precipitation Wind Pressure Humidity
    00:00 +24°C° 0 mm 1 mps 764 mmHg 88%
    01:00 +24°C° 0 mm 1 mps 764 mmHg 89%
    02:00 +23°C° 0 mm 1 mps 763 mmHg 89%
    03:00 +23°C° 0 mm 1 mps 763 mmHg 89%
    04:00 +23°C° 0 mm 1 mps 763 mmHg 88%
    05:00 +23°C° 0 mm 1 mps 763 mmHg 86%
    06:00 +23°C° 0 mm 1 mps 763 mmHg 85%
    07:00 +24°C° 0 mm 2 mps 764 mmHg 77%
    08:00 +26°C° 0 mm 2 mps 765 mmHg 70%
    09:00 +27°C° 0 mm 2 mps 765 mmHg 62%
    10:00 +29°C° 0 mm 2 mps 765 mmHg 56%
    11:00 +30°C° 0 mm 2 mps 764 mmHg 49%
    12:00 +33°C° 0 mm 3 mps 764 mmHg 43%
    13:00 +33°C° 0 mm 3 mps 763 mmHg 44%
    14:00 +31°C° 0 mm 3 mps 763 mmHg 44%
    15:00 +31°C° 0 mm 3 mps 762 mmHg 45%
    16:00 +30°C° 0 mm 2 mps 762 mmHg 48%
    17:00 +29°C° 0 mm 2 mps 762 mmHg 52%
    18:00 +27°C° 0 mm 2 mps 762 mmHg 55%
    19:00 +26°C° 0 mm 2 mps 763 mmHg 60%
    20:00 +24°C° 0 mm 2 mps 763 mmHg 64%
    21:00 +23°C° 0 mm 2 mps 764 mmHg 69%
    22:00 +21°C° 0 mm 2 mps 764 mmHg 72%
    23:00 +21°C° 0 mm 1 mps 764 mmHg 75%

    Tomorrow, 23 February, Sunday

    Time Temperature Precipitation Wind Pressure Humidity
    00:00 +20°C° 0 mm 1 mps 764 mmHg 78%
    01:00 +19°C° 0 mm 1 mps 763 mmHg 81%
    02:00 +18°C° 0 mm 1 mps 763 mmHg 85%
    03:00 +16°C° 0 mm 1 mps 762 mmHg 89%
    04:00 +15°C° 0 mm 1 mps 762 mmHg 90%
    05:00 +15°C° 0 mm 1 mps 763 mmHg 92%
    06:00 +14°C° 0 mm 1 mps 763 mmHg 94%
    07:00 +18°C° 0 mm 1 mps 763 mmHg 80%
    08:00 +21°C° 0 mm 1 mps 763 mmHg 66%
    09:00 +23°C° 0 mm 2 mps 764 mmHg 53%
    10:00 +27°C° 0 mm 1 mps 763 mmHg 43%
    11:00 +30°C° 0 mm 1 mps 762 mmHg 33%
    12:00 +32°C° 0 mm 0 mps 762 mmHg 24%
    13:00 +32°C° 0 mm 0 mps 761 mmHg 22%
    14:00 +33°C° 0 mm 0 mps 760 mmHg 20%
    15:00 +33°C° 0 mm 0 mps 758 mmHg 18%
    16:00 +32°C° 0 mm 1 mps 758 mmHg 25%
    17:00 +30°C° 0 mm 1 mps 758 mmHg 31%
    18:00 +27°C° 0 mm 1 mps 758 mmHg 37%
    19:00 +24°C° 0 mm 1 mps 759 mmHg 50%
    20:00 +22°C° 0 mm 1 mps 759 mmHg 63%
    21:00 +20°C° 0 mm 1 mps 760 mmHg 77%
    22:00 +19°C° 0 mm 1 mps 760 mmHg 78%
    23:00 +19°C° 0 mm 1 mps 759 mmHg 79%

    Day after tomorrow, 24 February, Monday

    Time Temperature Precipitation Wind Pressure Humidity
    00:00 +18°C° 0 mm 1 mps 759 mmHg 81%
    01:00 +18°C° 0 mm 1 mps 759 mmHg 79%
    02:00 +18°C° 0 mm 1 mps 758 mmHg 78%
    03:00 +18°C° 0 mm 1 mps 758 mmHg 77%
    04:00 +18°C° 0 mm 1 mps 758 mmHg 83%
    05:00 +16°C° 0 mm 1 mps 758 mmHg 89%
    06:00 +16°C° 0 mm 1 mps 758 mmHg 96%
    07:00 +20°C° 0 mm 1 mps 758 mmHg 84%
    08:00 +23°C° 0 mm 2 mps 759 mmHg 72%
    09:00 +26°C° 0 mm 2 mps 759 mmHg 60%
    10:00 +29°C° 0 mm 3 mps 758 mmHg 51%
    11:00 +33°C° 0 mm 3 mps 757 mmHg 42%
    12:00 +36°C° 0 mm 3 mps 756 mmHg 33%
    13:00 +37°C° 0 mm 3 mps 755 mmHg 31%
    14:00 +38°C° 0 mm 3 mps 754 mmHg 28%
    15:00 +39°C° 0 mm 3 mps 754 mmHg 26%
    16:00 +37°C° 0 mm 2 mps 754 mmHg 29%
    17:00 +35°C° 0 mm 2 mps 754 mmHg 33%
    18:00 +32°C° 0 mm 1 mps 754 mmHg 37%
    19:00 +30°C° 0 mm 2 mps 754 mmHg 45%
    20:00 +28°C° 0 mm 2 mps 755 mmHg 53%
    21:00 +27°C° 0 mm 2 mps 755 mmHg 61%
    22:00 +25°C° 0 mm 2 mps 755 mmHg 68%
    23:00 +24°C° 0 mm 2 mps 755 mmHg 75%

    25 February, Tuesday

    Time Temperature Precipitation Wind Pressure Humidity
    00:00 +23°C° 0 mm 2 mps 755 mmHg 82%
    01:00 +21°C° 0 mm 2 mps 755 mmHg 87%
    02:00 +20°C° 0 mm 2 mps 755 mmHg 92%
    03:00 +20°C° 0 mm 2 mps 755 mmHg 97%
    04:00 +21°C° 0 mm 1 mps 755 mmHg 97%
    05:00 +21°C° 0 mm 1 mps 755 mmHg 98%
    06:00 +21°C° 0 mm 1 mps 755 mmHg 98%
    07:00 +23°C° 0 mm 2 mps 755 mmHg 86%
    08:00 +26°C° 0 mm 2 mps 756 mmHg 75%
    09:00 +29°C° 0 mm 2 mps 756 mmHg 63%
    10:00 +32°C° 0 mm 2 mps 756 mmHg 52%
    11:00 +36°C° 0 mm 2 mps 755 mmHg 40%
    12:00 +39°C° 0 mm 1 mps 755 mmHg 28%
    13:00 +40°C° 0 mm 1 mps 754 mmHg 26%
    14:00 +40°C° 0 mm 1 mps 753 mmHg 24%
    15:00 +41°C° 0 mm 1 mps 753 mmHg 21%
    16:00 +38°C° 0 mm 2 mps 753 mmHg 34%
    17:00 +34°C° 0 mm 2 mps 753 mmHg 46%
    18:00 +29°C° 0 mm 2 mps 753 mmHg 58%
    19:00 +28°C° 0 mm 2 mps 754 mmHg 65%
    20:00 +26°C° 0 mm 1 mps 754 mmHg 72%
    21:00 +24°C° 0 mm 1 mps 755 mmHg 79%
    22:00 +24°C° 0 mm 1 mps 755 mmHg 79%
    23:00 +24°C° 0 mm 1 mps 755 mmHg 80%

    26 February, Wednesday

    Time Temperature Precipitation Wind Pressure Humidity
    00:00 +23°C° 0 mm 1 mps 755 mmHg 80%
    01:00 +23°C° 0 mm 1 mps 755 mmHg 82%
    02:00 +23°C° 0 mm 1 mps 755 mmHg 84%
    03:00 +23°C° 0 mm 1 mps 755 mmHg 86%
    04:00 +23°C° 0 mm 1 mps 755 mmHg 90%
    05:00 +23°C° 0 mm 1 mps 756 mmHg 93%
    06:00 +21°C° 0 mm 0 mps 756 mmHg 97%
    07:00 +23°C° 0 mm 0 mps 757 mmHg 85%
    08:00 +28°C° 0 mm 1 mps 757 mmHg 73%
    09:00 +31°C° 0 mm 1 mps 758 mmHg 61%
    10:00 +33°C° 0 mm 1 mps 757 mmHg 52%
    11:00 +35°C° 0 mm 1 mps 757 mmHg 44%
    12:00 +39°C° 0 mm 1 mps 757 mmHg 36%
    13:00 +37°C° 0 mm 2 mps 756 mmHg 38%
    14:00 +36°C° 0 mm 3 mps 756 mmHg 39%
    15:00 +35°C° 0 mm 4 mps 756 mmHg 41%
    16:00 +33°C° 0 mm 4 mps 756 mmHg 49%
    17:00 +31°C° 0 mm 3 mps 757 mmHg 57%
    18:00 +29°C° 0 mm 3 mps 757 mmHg 64%
    19:00 +28°C° 0 mm 3 mps 759 mmHg 69%
    20:00 +26°C° 0 mm 3 mps 760 mmHg 75%
    21:00 +25°C° 0 mm 4 mps 761 mmHg 80%
    22:00 +23°C° 0 mm 4 mps 762 mmHg 78%
    23:00 +23°C° 0 mm 4 mps 762 mmHg 76%

    27 February, Thursday

    Time Temperature Precipitation Wind Pressure Humidity
    00:00 +22°C° 0 mm 4 mps 763 mmHg 75%
    01:00 +22°C° 0 mm 4 mps 763 mmHg 72%
    02:00 +21°C° 0 mm 4 mps 763 mmHg 70%
    03:00 +21°C° 0 mm 3 mps 763 mmHg 68%
    04:00 +21°C° 0 mm 3 mps 764 mmHg 65%
    05:00 +20°C° 0 mm 3 mps 764 mmHg 63%
    06:00 +20°C° 0 mm 3 mps 765 mmHg 60%
    07:00 +20°C° 0 mm 3 mps 765 mmHg 58%
    08:00 +21°C° 0 mm 3 mps 766 mmHg 56%
    09:00 +21°C° 0 mm 3 mps 767 mmHg 54%
    10:00 +24°C° 0 mm 3 mps 766 mmHg 50%
    11:00 +25°C° 0 mm 3 mps 766 mmHg 45%
    12:00 +27°C° 0 mm 3 mps 766 mmHg 40%
    13:00 +27°C° 0 mm 3 mps 765 mmHg 41%
    14:00 +27°C° 0 mm 3 mps 765 mmHg 41%
    15:00 +27°C° 0 mm 3 mps 764 mmHg 42%
    16:00 +25°C° 0 mm 3 mps 764 mmHg 45%
    17:00 +24°C° 0 mm 3 mps 765 mmHg 49%
    18:00 +22°C° 0 mm 3 mps 765 mmHg 52%
    19:00 +20°C° 0 mm 2 mps 765 mmHg 59%
    20:00 +19°C° 0 mm 2 mps 766 mmHg 67%
    21:00 +18°C° 0 mm 1 mps 766 mmHg 74%
    22:00 +16°C° 0 mm 1 mps 766 mmHg 76%
    23:00 +16°C° 0 mm 1 mps 766 mmHg 77%
    Show more